Notices

What's New in latest Release from April 7th, 2021:

- Updated Glossary, including Speed of Maximum Gust, and Total Hourly Precipitation

- Updated national and regional climate services offices contacts and prices information

- Addition of station inventory lists for 1981-2010, 1971-2000, and 1961-1990 Normals.

If you haven't already, please take our survey and provide feedback about our website: https://eccc.sondage-survey.ca/f/LanguageSelection.aspx?s=442ca660-fcf1-47c0-95a9-59707d6fd709

Hourly Data Report for April 29, 2017

KENORA A
ONTARIO

49°47'18.000" N
94°21'47.000" W
409.70 m
6034076
71850
YQK

Download Data

Hourly Data (April 2017)
Hourly Data Report for April 29, 2017
TIME
LST
Temp Definition
°C
Dew Point Definition
°C
Rel Hum Definition
%
Precip. Amount Definition
mm

Wind Dir Definition
10's deg

Wind Spd Definition
km/h
Visibility Definition
km
Stn Press Definition
kPa
Hmdx Definition


Wind Chill Definition


Weather Definition


00:00 2.0 -10.9 38   29 12 24.1 97.34     Clear
01:00 1.4 -9.0 46   33 10 24.1 97.40     LegendNANA
02:00 1.1 -9.3 46   36 7 24.1 97.45     LegendNANA
03:00 0.4 -9.4 48   36 10 24.1 97.51     Clear
04:00 -0.6 -10.6 47   4 9 24.1 97.55   -4 LegendNANA
05:00 -0.4 -11.2 44   6 12 24.1 97.56   -4 LegendNANA
06:00 -0.4 -8.9 53   6 13 24.1 97.60   -5 Mainly Clear
07:00 1.5 -7.8 50   9 7 24.1 97.64     LegendNANA
08:00 4.8 -9.4 35   7 8 24.1 97.66     LegendNANA
09:00 6.5 -13.2 23   9 6 24.1 97.78     Mainly Clear
10:00 7.4 -10.4 27   20 5 24.1 97.85     LegendNANA
11:00 7.8 -12.7 22   27 8 24.1 97.87     LegendNANA
12:00 8.9 -12.3 21   26 9 24.1 97.86     Mainly Clear
13:00 9.5 -13.1 19   21 14 24.1 97.86     LegendNANA
14:00 9.9 -13.4 18   19 4 24.1 97.76     LegendNANA
15:00 10.4 -11.7 20   23 11 24.1 97.81     Mostly Cloudy
16:00 10.4 -13.0 18   13 9 24.1 97.83     LegendNANA
17:00 10.8 -13.4 17   20 9 24.1 97.72     LegendNANA
18:00 10.6 -10.9 21   22 10 24.1 97.63     Mainly Clear
19:00 9.7 -11.0 22   36 3 24.1 97.56     LegendNANA
20:00 8.5 -11.0 24   12 7 24.1 97.56     LegendNANA
21:00 6.7 -10.6 28   11 9 24.1 97.51     Mainly Clear
22:00 7.0 -11.3 26   14 10 24.1 97.56     LegendNANA
23:00 5.5 -9.6 33   15 11 24.1 97.55     LegendNANA

Notes on Data Quality.

Legend

  • E = Estimated
  • M = Missing
  • NA = Not Available*
  • [empty] = Indicates an unobserved value
Date modified: